^^
Saratoga-Weather Station Historical Data
Daily Summary for August 11, 2022 Units:  English    Metric   Both
Daily Weekly Monthly Yearly Custom
  High: Low: Average:
Temperature: 89.1 °F 62.8 °F 76.1 °F
Dew Point: 53.6 °F 48 °F 49.8 °F
Humidity: 60% 26% 42%
Wind Speed: 13mph 0mph 2mph
Wind Gust: 15mph - -
Wind- - SE
Pressure: 30.1 in 30 in -
Precipitation: 0 in    
Historical Graphs
 
 
Tabular Data for August 11, 2022
Time Temperature Dew Point Pressure Wind Wind Speed Wind Gust Humidity Rainfall Rate (Hourly) solar
00:03 69.4 °F 48.9 °F 30.1 in Calm   1 mph 48% 0 in 0 W/m2
00:08 69.3 °F 49.3 °F 30.1 in Calm   2 mph 49% 0 in 0 W/m2
00:13 68.9 °F 48.9 °F 30.1 in Calm     49% 0 in 0 W/m2
00:18 68.7 °F 49.3 °F 30.1 in Calm     50% 0 in 0 W/m2
00:23 68.4 °F 48.9 °F 30.1 in ESE 0.9 mph 2 mph 50% 0 in 0 W/m2
00:28 68.2 °F 49.3 °F 30.1 in Calm   1 mph 51% 0 in 0 W/m2
00:33 67.8 °F 49.6 °F 30.1 in ESE 0.9 mph 1 mph 52% 0 in 0 W/m2
00:38 67.5 °F 49.3 °F 30.1 in Calm   2 mph 52% 0 in 0 W/m2
00:43 67.3 °F 49.1 °F 30.1 in Calm   2 mph 52% 0 in 0 W/m2
00:48 67.3 °F 49.1 °F 30.1 in ESE 2 mph 2 mph 52% 0 in 0 W/m2
00:53 66.9 °F 48.7 °F 30.1 in Calm     52% 0 in 0 W/m2
00:58 66.9 °F 49.3 °F 30.1 in Calm   1 mph 53% 0 in 0 W/m2
01:03 66.7 °F 49.1 °F 30.1 in Calm     53% 0 in 0 W/m2
01:08 66.7 °F 49.1 °F 30.1 in Calm     53% 0 in 0 W/m2
01:13 66.7 °F 49.1 °F 30.1 in Calm     53% 0 in 0 W/m2
01:18 66.6 °F 48.9 °F 30.1 in Calm     53% 0 in 0 W/m2
01:23 66.4 °F 49.3 °F 30.1 in Calm     54% 0 in 0 W/m2
01:28 66.4 °F 49.3 °F 30.1 in Calm   2 mph 54% 0 in 0 W/m2
01:33 66 °F 48.9 °F 30.1 in Calm     54% 0 in 0 W/m2
01:38 66 °F 48.9 °F 30.1 in Calm   2 mph 54% 0 in 0 W/m2
01:43 66 °F 48.9 °F 30.1 in Calm   1 mph 54% 0 in 0 W/m2
01:48 65.8 °F 48.7 °F 30.1 in Calm   1 mph 54% 0 in 0 W/m2
01:53 65.8 °F 48.7 °F 30.1 in Calm   2 mph 54% 0 in 0 W/m2
01:58 65.7 °F 49.1 °F 30.1 in SSE 0.9 mph 1 mph 55% 0 in 0 W/m2
02:03 65.5 °F 48.4 °F 30.1 in Calm   2 mph 54% 0 in 0 W/m2
02:08 65.3 °F 48.7 °F 30.1 in SSE 0.9 mph 1 mph 55% 0 in 0 W/m2
02:13 65.3 °F 48.7 °F 30.1 in Calm   2 mph 55% 0 in 0 W/m2
02:18 65.1 °F 48.6 °F 30.1 in Calm   2 mph 55% 0 in 0 W/m2
02:23 65.1 °F 49.1 °F 30.1 in Calm     56% 0 in 0 W/m2
02:28 64.9 °F 48.9 °F 30.1 in Calm   1 mph 56% 0 in 0 W/m2
02:33 64.8 °F 48.7 °F 30.1 in South 0.9 mph 1 mph 56% 0 in 0 W/m2
02:38 64.6 °F 48.6 °F 30.1 in Calm   1 mph 56% 0 in 0 W/m2
02:43 64.6 °F 48.6 °F 30.1 in Calm     56% 0 in 0 W/m2
02:48 64.2 °F 48.7 °F 30.1 in Calm     57% 0 in 0 W/m2
02:53 64.2 °F 49.1 °F 30.1 in Calm     58% 0 in 0 W/m2
02:58 64 °F 48.9 °F 30.1 in Calm   1 mph 58% 0 in 0 W/m2
03:03 63.9 °F 48.7 °F 30.1 in Calm     58% 0 in 0 W/m2
03:08 63.7 °F 49.1 °F 30.1 in Calm   1 mph 59% 0 in 0 W/m2
03:13 63.3 °F 48.7 °F 30.1 in Calm   1 mph 59% 0 in 0 W/m2
03:18 63.3 °F 48.7 °F 30.1 in Calm   1 mph 59% 0 in 0 W/m2
03:23 63.1 °F 49.1 °F 30.1 in Calm     60% 0 in 0 W/m2
03:28 63.1 °F 49.1 °F 30.1 in South 0.9 mph 1 mph 60% 0 in 0 W/m2
03:33 63 °F 48.4 °F 30.1 in Calm     59% 0 in 0 W/m2
03:38 63 °F 48.9 °F 30.1 in South 0.9 mph 1 mph 60% 0 in 0 W/m2
03:43 63 °F 48.9 °F 30.1 in Calm     60% 0 in 0 W/m2
03:48 63 °F 48.9 °F 30.1 in SSW 0.9 mph 3 mph 60% 0 in 0 W/m2
03:53 63 °F 48.4 °F 30.1 in Calm   2 mph 59% 0 in 0 W/m2
03:59 63.1 °F 48.6 °F 30.1 in Calm   3 mph 59% 0 in 0 W/m2
04:04 63.1 °F 49.1 °F 30.1 in Calm   1 mph 60% 0 in 0 W/m2
04:09 63 °F 48.4 °F 30.1 in SSW 0.9 mph 2 mph 59% 0 in 0 W/m2
04:14 63 °F 48.9 °F 30.1 in Calm   1 mph 60% 0 in 0 W/m2
04:19 62.8 °F 48.7 °F 30.1 in SSW 0.9 mph 1 mph 60% 0 in 0 W/m2
04:24 62.8 °F 48.7 °F 30.1 in SSW 0.9 mph 2 mph 60% 0 in 0 W/m2
04:29 62.8 °F 48.7 °F 30.1 in SW 2 mph 2 mph 60% 0 in 0 W/m2
04:34 63 °F 48.9 °F 30.1 in West 2.9 mph 3 mph 60% 0 in 0 W/m2
04:39 63.1 °F 48.6 °F 30.1 in SW 0.9 mph 2 mph 59% 0 in 0 W/m2
04:44 63.5 °F 48.9 °F 30.1 in Calm   3 mph 59% 0 in 0 W/m2
04:49 63.7 °F 48.6 °F 30.1 in WSW 0.9 mph 1 mph 58% 0 in 0 W/m2
04:54 63.9 °F 48.7 °F 30.1 in Calm   3 mph 58% 0 in 0 W/m2
04:59 64 °F 48.9 °F 30.1 in Calm   3 mph 58% 0 in 0 W/m2
05:04 64 °F 48.9 °F 30.1 in Calm   2 mph 58% 0 in 0 W/m2
05:09 64 °F 48.9 °F 30.1 in WNW 0.9 mph 3 mph 58% 0 in 0 W/m2
05:14 63.9 °F 48.7 °F 30.1 in Calm   2 mph 58% 0 in 0 W/m2
05:19 64 °F 48.9 °F 30.1 in Calm   1 mph 58% 0 in 0 W/m2
05:24 64 °F 48.9 °F 30.1 in Calm   3 mph 58% 0 in 0 W/m2
05:29 64 °F 48.6 °F 30.1 in SW 0.9 mph 2 mph 57% 0 in 0 W/m2
05:34 64 °F 48.9 °F 30.1 in SW 2 mph 2 mph 58% 0 in 0 W/m2
05:39 63.9 °F 48.7 °F 30.1 in Calm   1 mph 58% 0 in 0 W/m2
05:44 63.7 °F 49.1 °F 30.1 in Calm   2 mph 59% 0 in 0 W/m2
05:49 63.7 °F 49.1 °F 30.1 in Calm   2 mph 59% 0 in 0 W/m2
05:54 63.5 °F 48.9 °F 30.1 in SW 0.9 mph 2 mph 59% 0 in 0 W/m2
05:59 63.7 °F 49.1 °F 30.1 in Calm   1 mph 59% 0 in 0 W/m2
06:04 63.7 °F 49.1 °F 30.1 in Calm   1 mph 59% 0 in 0 W/m2
06:09 63.7 °F 49.1 °F 30.1 in Calm   1 mph 59% 0 in 0 W/m2
06:14 63.7 °F 49.1 °F 30.1 in Calm   1 mph 59% 0 in 0 W/m2
06:19 63.3 °F 49.3 °F 30.1 in SW 0.9 mph 1 mph 60% 0 in 0 W/m2
06:24 63.1 °F 49.1 °F 30.1 in Calm   1 mph 60% 0 in 5 W/m2
06:29 63.1 °F 49.1 °F 30.1 in Calm   2 mph 60% 0 in 5 W/m2
06:34 63 °F 48.9 °F 30.1 in SW 2.9 mph 3 mph 60% 0 in 9 W/m2
06:39 63.1 °F 49.1 °F 30.1 in Calm   2 mph 60% 0 in 11 W/m2
06:44 63.1 °F 49.1 °F 30.1 in West 0.9 mph 1 mph 60% 0 in 12 W/m2
06:49 63.1 °F 49.1 °F 30.1 in Calm   1 mph 60% 0 in 14 W/m2
06:54 63.3 °F 48.7 °F 30.1 in Calm   2 mph 59% 0 in 16 W/m2
06:59 63.7 °F 49.1 °F 30.1 in Calm   2 mph 59% 0 in 18 W/m2
07:04 63.9 °F 49.6 °F 30.1 in Calm   1 mph 60% 0 in 19 W/m2
07:09 63.9 °F 49.6 °F 30.1 in Calm   1 mph 60% 0 in 21 W/m2
07:14 64 °F 49.5 °F 30.1 in Calm     59% 0 in 23 W/m2
07:19 64.2 °F 49.1 °F 30.1 in Calm   2 mph 58% 0 in 25 W/m2
07:24 64.4 °F 49.8 °F 30.1 in Calm     59% 0 in 26 W/m2
07:29 64.8 °F 49.6 °F 30.1 in Calm   2 mph 58% 0 in 28 W/m2
07:34 64.9 °F 49.8 °F 30.1 in Calm     58% 0 in 81 W/m2
07:39 65.3 °F 49.6 °F 30.1 in Calm     57% 0 in 95 W/m2
07:44 65.8 °F 49.6 °F 30.1 in WNW 2 mph 2 mph 56% 0 in 107 W/m2
07:49 66.6 °F 49.8 °F 30.1 in Calm   2 mph 55% 0 in 121 W/m2
07:54 67.3 °F 50 °F 30.1 in Calm   2 mph 54% 0 in 137 W/m2
07:59 67.6 °F 49.8 °F 30.1 in NW 0.9 mph 2 mph 53% 0 in 151 W/m2
08:04 68.2 °F 50.4 °F 30.1 in Calm   1 mph 53% 0 in 165 W/m2
08:09 68.7 °F 50.4 °F 30.1 in Calm     52% 0 in 179 W/m2
08:14 69.6 °F 50.7 °F 30.1 in NNW 0.9 mph 1 mph 51% 0 in 153 W/m2
08:19 70.3 °F 50.9 °F 30.1 in Calm     50% 0 in 79 W/m2
08:24 70.7 °F 50.5 °F 30.1 in NNE 0.9 mph 2 mph 49% 0 in 46 W/m2
08:29 70.7 °F 50.5 °F 30.1 in SE 0.9 mph 3 mph 49% 0 in 46 W/m2
08:34 71.1 °F 50.4 °F 30.1 in North 0.9 mph 4 mph 48% 0 in 46 W/m2
08:39 71.2 °F 50.5 °F 30.1 in Calm   1 mph 48% 0 in 46 W/m2
08:44 71.6 °F 50.4 °F 30.1 in ENE 2 mph 4 mph 47% 0 in 46 W/m2
08:49 72 °F 50.7 °F 30.1 in NE 0.9 mph 1 mph 47% 0 in 47 W/m2
08:54 72.5 °F 50.5 °F 30.1 in NE 0.9 mph 2 mph 46% 0 in 47 W/m2
08:59 72.5 °F 51.1 °F 30.1 in ENE 0.9 mph 2 mph 47% 0 in 47 W/m2
09:04 72.7 °F 50.7 °F 30.1 in NE 0.9 mph 6 mph 46% 0 in 47 W/m2
09:09 72.7 °F 50.7 °F 30.1 in Calm   3 mph 46% 0 in 46 W/m2
09:14 72.7 °F 50.7 °F 30.1 in Calm   6 mph 46% 0 in 47 W/m2
09:19 72.9 °F 50.9 °F 30.1 in WNW 2 mph 3 mph 46% 0 in 47 W/m2
09:24 72.9 °F 51.4 °F 30.1 in NNW 2 mph 2 mph 47% 0 in 47 W/m2
09:29 73.2 °F 51.8 °F 30.1 in Calm   3 mph 47% 0 in 47 W/m2
09:34 73.6 °F 51.4 °F 30.1 in East 2.9 mph 4 mph 46% 0 in 49 W/m2
09:39 73.9 °F 51.8 °F 30.1 in ESE 2 mph 7 mph 46% 0 in 49 W/m2
09:44 74.3 °F 51.6 °F 30.1 in WNW 0.9 mph 3 mph 45% 0 in 47 W/m2
09:49 74.7 °F 52 °F 30.1 in East 2 mph 6 mph 45% 0 in 49 W/m2
09:54 75 °F 52.2 °F 30.1 in East 0.9 mph 5 mph 45% 0 in 53 W/m2
09:59 75.4 °F 52 °F 30.1 in North 2.9 mph 5 mph 44% 0 in 54 W/m2
10:04 75.7 °F 52.3 °F 30.1 in ENE 6.9 mph 8 mph 44% 0 in 56 W/m2
10:09 76.3 °F 52.7 °F 30.1 in ENE 0.9 mph 6 mph 44% 0 in 114 W/m2
10:14 76.5 °F 52.9 °F 30.1 in East 2.9 mph 4 mph 44% 0 in 466 W/m2
10:19 77.2 °F 52.9 °F 30.1 in ESE 6 mph 6 mph 43% 0 in 536 W/m2
10:24 77.7 °F 53.4 °F 30.1 in North 0.9 mph 4 mph 43% 0 in 548 W/m2
10:29 78.3 °F 53.2 °F 30.1 in ENE 6 mph 6 mph 42% 0 in 559 W/m2
10:34 78.6 °F 53.6 °F 30.1 in East 2 mph 6 mph 42% 0 in 573 W/m2
10:39 79.2 °F 52.7 °F 30.1 in NE 4 mph 9 mph 40% 0 in 582 W/m2
10:44 79.5 °F 53.1 °F 30.1 in NNE 4.9 mph 8 mph 40% 0 in 594 W/m2
10:49 79.9 °F 53.4 °F 30.1 in ESE 2.9 mph 4 mph 40% 0 in 605 W/m2
10:54 80.4 °F 53.2 °F 30.1 in NE 12.1 mph 12 mph 39% 0 in 624 W/m2
10:59 81.1 °F 52.3 °F 30.1 in SE 2 mph 7 mph 37% 0 in 635 W/m2
11:04 81.9 °F 51.4 °F 30.1 in North 12 mph 12 mph 35% 0 in 642 W/m2
11:09 81.9 °F 51.4 °F 30.1 in East 0.9 mph 7 mph 35% 0 in 652 W/m2
11:14 82 °F 50.9 °F 30.1 in SE 2.9 mph 12 mph 34% 0 in 663 W/m2
11:19 82.2 °F 51.1 °F 30.1 in ENE 4 mph 6 mph 34% 0 in 675 W/m2
11:24 82.6 °F 50.5 °F 30.1 in SSE 6 mph 9 mph 33% 0 in 680 W/m2
11:29 82.8 °F 49.1 °F 30.1 in ESE 2 mph 8 mph 31% 0 in 689 W/m2
11:34 82.9 °F 50.9 °F 30.1 in ENE 8.9 mph 9 mph 33% 0 in 703 W/m2
11:39 82.9 °F 50 °F 30.1 in ENE 8.9 mph 9 mph 32% 0 in 712 W/m2
11:45 83.1 °F 51.1 °F 30.1 in East 2 mph 10 mph 33% 0 in 719 W/m2
11:50 83.5 °F 50.5 °F 30.1 in East 2 mph 9 mph 32% 0 in 729 W/m2
11:55 83.5 °F 49.6 °F 30.1 in East 6.9 mph 10 mph 31% 0 in 737 W/m2
12:00 83.5 °F 50.5 °F 30.1 in SSE 4 mph 10 mph 32% 0 in 749 W/m2
12:05 83.5 °F 49.6 °F 30.1 in ENE 2 mph 7 mph 31% 0 in 752 W/m2
12:10 83.7 °F 49.8 °F 30.1 in ESE 2.9 mph 11 mph 31% 0 in 754 W/m2
12:15 83.7 °F 49.8 °F 30.1 in SE 4 mph 9 mph 31% 0 in 765 W/m2
12:20 83.7 °F 49.8 °F 30.1 in East 6 mph 13 mph 31% 0 in 766 W/m2
12:25 84 °F 49.3 °F 30.1 in ESE 8.1 mph 10 mph 30% 0 in 775 W/m2
12:30 84.2 °F 51.1 °F 30.1 in NW 2.9 mph 13 mph 32% 0 in 786 W/m2
12:35 84 °F 50.2 °F 30.1 in NNW 11 mph 15 mph 31% 0 in 788 W/m2
12:40 83.8 °F 50.9 °F 30.1 in East 4 mph 10 mph 32% 0 in 795 W/m2
12:45 84 °F 51.8 °F 30.1 in East 4 mph 6 mph 33% 0 in 800 W/m2
12:50 84.2 °F 50.4 °F 30.1 in ENE 13 mph 13 mph 31% 0 in 805 W/m2
12:55 84 °F 49.3 °F 30.1 in ESE 6 mph 10 mph 30% 0 in 807 W/m2
13:00 84.2 °F 48.6 °F 30.1 in ENE 6.9 mph 14 mph 29% 0 in 812 W/m2
13:05 84.4 °F 49.6 °F 30.1 in East 6 mph 8 mph 30% 0 in 814 W/m2
13:10 84.6 °F 48.7 °F 30.1 in NE 4 mph 14 mph 29% 0 in 819 W/m2
13:15 85.5 °F 49.6 °F 30.1 in SE 2.9 mph 10 mph 29% 0 in 821 W/m2
13:20 85.8 °F 49.8 °F 30.1 in ENE 2 mph 5 mph 29% 0 in 824 W/m2
13:25 86.2 °F 49.3 °F 30.1 in East 2 mph 6 mph 28% 0 in 824 W/m2
13:30 86.5 °F 48.6 °F 30.1 in ESE 2.9 mph 7 mph 27% 0 in 831 W/m2
13:35 86.5 °F 48.6 °F 30.1 in NNE 4.9 mph 13 mph 27% 0 in 830 W/m2
13:40 86.4 °F 48.4 °F 30.1 in East 10.1 mph 10 mph 27% 0 in 833 W/m2
13:45 86 °F 49.1 °F 30.1 in ENE 6 mph 11 mph 28% 0 in 830 W/m2
13:50 86.2 °F 49.3 °F 30.1 in ENE 4.9 mph 12 mph 28% 0 in 831 W/m2
13:55 86.2 °F 48.2 °F 30.1 in East 12.1 mph 12 mph 27% 0 in 833 W/m2
14:00 86.2 °F 49.3 °F 30.1 in SE 4.9 mph 9 mph 28% 0 in 831 W/m2
14:05 86.4 °F 49.5 °F 30.1 in ENE 12 mph 12 mph 28% 0 in 831 W/m2
14:10 86.2 °F 49.3 °F 30.1 in East 2.9 mph 8 mph 28% 0 in 833 W/m2
14:15 86.2 °F 48.2 °F 30.1 in NE 2.9 mph 8 mph 27% 0 in 830 W/m2
14:20 86.2 °F 49.3 °F 30.1 in ENE 4 mph 10 mph 28% 0 in 826 W/m2
14:25 86.2 °F 49.3 °F 30.1 in SW 0.9 mph 6 mph 28% 0 in 828 W/m2
14:30 86.4 °F 49.5 °F 30 in NE 4 mph 6 mph 28% 0 in 826 W/m2
14:35 86.5 °F 49.6 °F 30 in ESE 4.9 mph 8 mph 28% 0 in 826 W/m2
14:40 86.7 °F 49.6 °F 30 in NW 4 mph 6 mph 28% 0 in 824 W/m2
14:45 87.1 °F 48 °F 30 in SE 4 mph 10 mph 26% 0 in 817 W/m2
14:50 87.1 °F 49.1 °F 30 in ENE 4.9 mph 10 mph 27% 0 in 819 W/m2
14:55 86.7 °F 48.7 °F 30 in ESE 8.9 mph 9 mph 27% 0 in 814 W/m2
15:00 86.5 °F 49.6 °F 30 in SE 4.9 mph 8 mph 28% 0 in 809 W/m2
15:05 86.4 °F 49.5 °F 30 in NNE 2.9 mph 7 mph 28% 0 in 805 W/m2
15:10 86.5 °F 49.6 °F 30 in East 6.9 mph 10 mph 28% 0 in 798 W/m2
15:15 87.1 °F 50 °F 30 in ENE 2.9 mph 8 mph 28% 0 in 795 W/m2
15:20 87.4 °F 49.3 °F 30 in ENE 4 mph 12 mph 27% 0 in 789 W/m2
15:25 87.4 °F 49.3 °F 30 in North 2.9 mph 7 mph 27% 0 in 786 W/m2
15:30 87.6 °F 49.5 °F 30 in East 2.9 mph 12 mph 27% 0 in 777 W/m2
15:35 88 °F 49.8 °F 30 in ESE 4 mph 8 mph 27% 0 in 773 W/m2
15:40 88.2 °F 50 °F 30 in ESE 2.9 mph 6 mph 27% 0 in 770 W/m2
15:45 88.3 °F 50.2 °F 30 in NW 0.9 mph 4 mph 27% 0 in 756 W/m2
15:50 88.5 °F 50.4 °F 30 in ENE 8.1 mph 10 mph 27% 0 in 749 W/m2
15:55 88.5 °F 50.4 °F 30 in South 4.9 mph 5 mph 27% 0 in 733 W/m2
16:00 88.2 °F 50.9 °F 30 in NNW 4 mph 7 mph 28% 0 in 721 W/m2
16:05 88.2 °F 50 °F 30 in ESE 2 mph 4 mph 27% 0 in 717 W/m2
16:10 88.3 °F 50.2 °F 30 in SW 2 mph 8 mph 27% 0 in 714 W/m2
16:15 88.5 °F 50.4 °F 30 in NE 6 mph 9 mph 27% 0 in 698 W/m2
16:20 88.3 °F 50.2 °F 30 in ESE 4 mph 9 mph 27% 0 in 689 W/m2
16:25 88.2 °F 50 °F 30 in Calm   7 mph 27% 0 in 686 W/m2
16:30 88.2 °F 50.9 °F 30 in SE 4.9 mph 8 mph 28% 0 in 668 W/m2
16:35 88.3 °F 50.2 °F 30 in NE 8.9 mph 9 mph 27% 0 in 659 W/m2
16:40 88.2 °F 50.9 °F 30 in NE 2 mph 12 mph 28% 0 in 652 W/m2
16:45 88.3 °F 52 °F 30 in ESE 8.1 mph 8 mph 29% 0 in 640 W/m2
16:50 88.5 °F 51.3 °F 30 in East 2 mph 7 mph 28% 0 in 629 W/m2
16:55 88.5 °F 50.4 °F 30 in SSW 2 mph 6 mph 27% 0 in 622 W/m2
17:00 88.7 °F 50.4 °F 30 in ESE 0.9 mph 3 mph 27% 0 in 612 W/m2
17:05 88.9 °F 51.6 °F 30 in SSE 2.9 mph 4 mph 28% 0 in 578 W/m2
17:10 89.1 °F 51.8 °F 30 in East 2.9 mph 9 mph 28% 0 in 582 W/m2
17:15 88.9 °F 50.5 °F 30 in East 2 mph 5 mph 27% 0 in 568 W/m2
17:20 88.9 °F 51.6 °F 30 in WSW 2 mph 12 mph 28% 0 in 557 W/m2
17:25 88.9 °F 51.6 °F 30 in ESE 2.9 mph 6 mph 28% 0 in 540 W/m2
17:30 88.9 °F 51.6 °F 30 in ESE 0.9 mph 12 mph 28% 0 in 526 W/m2
17:35 88.9 °F 51.6 °F 30 in NE 2.9 mph 8 mph 28% 0 in 510 W/m2
17:41 88.9 °F 51.6 °F 30 in East 2 mph 7 mph 28% 0 in 497 W/m2
17:46 88.7 °F 52.3 °F 30 in NE 2.9 mph 5 mph 29% 0 in 483 W/m2
17:51 88.7 °F 52.3 °F 30 in ESE 2 mph 3 mph 29% 0 in 475 W/m2
17:56 88.7 °F 52.3 °F 30 in NNE 2.9 mph 8 mph 29% 0 in 466 W/m2
18:01 88.5 °F 52.2 °F 30 in East 2.9 mph 10 mph 29% 0 in 439 W/m2
18:06 88.5 °F 52.2 °F 30 in East 0.9 mph 4 mph 29% 0 in 436 W/m2
18:11 88.9 °F 52.5 °F 30 in ESE 2 mph 6 mph 29% 0 in 422 W/m2
18:16 88.9 °F 51.6 °F 30 in North 2.9 mph 9 mph 28% 0 in 403 W/m2
18:21 88.5 °F 51.3 °F 30 in ESE 0.9 mph 8 mph 28% 0 in 390 W/m2
18:26 88.3 °F 50.2 °F 30 in NNE 2 mph 9 mph 27% 0 in 378 W/m2
18:31 88 °F 49.8 °F 30 in NNE 2.9 mph 9 mph 27% 0 in 367 W/m2
18:36 88 °F 49.8 °F 30 in ESE 2.9 mph 9 mph 27% 0 in 357 W/m2
18:41 88 °F 49.8 °F 30 in SE 2 mph 4 mph 27% 0 in 346 W/m2
18:46 88.2 °F 50 °F 30 in SE 0.9 mph 9 mph 27% 0 in 334 W/m2
18:51 88 °F 49.8 °F 30 in ENE 4.9 mph 7 mph 27% 0 in 325 W/m2
18:56 87.6 °F 48.6 °F 30 in NE 2.9 mph 9 mph 26% 0 in 297 W/m2
19:01 87.4 °F 48.4 °F 30 in Calm   3 mph 26% 0 in 279 W/m2
19:06 87.4 °F 48.4 °F 30 in East 2 mph 3 mph 26% 0 in 250 W/m2
19:11 87.4 °F 48.4 °F 30 in ESE 6 mph 9 mph 26% 0 in 155 W/m2
19:16 87.3 °F 49.3 °F 30 in NNW 2 mph 3 mph 27% 0 in 60 W/m2
19:21 87.1 °F 49.1 °F 30 in East 2 mph 9 mph 27% 0 in 51 W/m2
19:26 86.7 °F 48.7 °F 30 in ENE 4 mph 6 mph 27% 0 in 49 W/m2
19:31 86.4 °F 48.4 °F 30 in ENE 4 mph 7 mph 27% 0 in 47 W/m2
19:36 86 °F 49.1 °F 30 in SSE 6 mph 9 mph 28% 0 in 46 W/m2
19:41 85.8 °F 48.9 °F 30 in East 4 mph 6 mph 28% 0 in 42 W/m2
19:46 85.6 °F 48.7 °F 30 in ESE 2 mph 4 mph 28% 0 in 40 W/m2
19:51 85.6 °F 48.7 °F 30 in SE 0.9 mph 7 mph 28% 0 in 37 W/m2
19:56 85.5 °F 49.6 °F 30 in East 0.9 mph 6 mph 29% 0 in 35 W/m2
20:01 85.5 °F 49.6 °F 30 in SSE 2 mph 4 mph 29% 0 in 33 W/m2
20:06 85.1 °F 48.4 °F 30 in NE 2.9 mph 10 mph 28% 0 in 33 W/m2
20:11 84.9 °F 49.1 °F 30 in SE 0.9 mph 5 mph 29% 0 in 32 W/m2
20:16 84.6 °F 48.7 °F 30 in ENE 2.9 mph 8 mph 29% 0 in 30 W/m2
20:21 84 °F 48.4 °F 30 in NE 0.9 mph 7 mph 29% 0 in 26 W/m2
20:26 83.8 °F 49.1 °F 30 in East 2 mph 6 mph 30% 0 in 25 W/m2
20:31 83.5 °F 48.7 °F 30 in East 4 mph 7 mph 30% 0 in 23 W/m2
20:36 83.1 °F 48.6 °F 30 in ENE 0.9 mph 4 mph 30% 0 in 19 W/m2
20:41 82.9 °F 49.3 °F 30 in East 2.9 mph 3 mph 31% 0 in 16 W/m2
20:46 82.6 °F 49.8 °F 30 in East 2 mph 2 mph 32% 0 in 14 W/m2
20:51 82 °F 49.3 °F 30 in Calm   3 mph 32% 0 in 11 W/m2
20:56 81.7 °F 48.9 °F 30 in ENE 0.9 mph 2 mph 32% 0 in 7 W/m2
21:01 81.1 °F 49.3 °F 30 in ENE 0.9 mph 1 mph 33% 0 in 7 W/m2
21:06 81 °F 50 °F 30 in ESE 2 mph 2 mph 34% 0 in 5 W/m2
21:11 80.4 °F 50.2 °F 30 in Calm   1 mph 35% 0 in 0 W/m2
21:16 80.1 °F 50 °F 30 in East 2 mph 2 mph 35% 0 in 0 W/m2
21:21 79.5 °F 50.2 °F 30 in East 0.9 mph 2 mph 36% 0 in 0 W/m2
21:26 79.2 °F 50.7 °F 30 in East 0.9 mph 1 mph 37% 0 in 0 W/m2
21:31 78.6 °F 50.9 °F 30 in Calm   1 mph 38% 0 in 0 W/m2
21:36 78.1 °F 50.4 °F 30 in East 0.9 mph 2 mph 38% 0 in 0 W/m2
21:41 77.5 °F 50.5 °F 30 in Calm   2 mph 39% 0 in 0 W/m2
21:46 77 °F 50.9 °F 30 in Calm   1 mph 40% 0 in 0 W/m2
21:51 76.5 °F 50.4 °F 30 in East 0.9 mph 2 mph 40% 0 in 0 W/m2
21:56 76.1 °F 50.7 °F 30 in East 0.9 mph 2 mph 41% 0 in 0 W/m2
22:01 75.7 °F 50.4 °F 30 in Calm     41% 0 in 0 W/m2
22:06 75.4 °F 50.7 °F 30 in Calm   2 mph 42% 0 in 0 W/m2
22:11 75 °F 51.1 °F 30 in East 0.9 mph 1 mph 43% 0 in 0 W/m2
22:16 74.7 °F 51.3 °F 30 in Calm     44% 0 in 0 W/m2
22:21 74.1 °F 51.4 °F 30 in Calm   1 mph 45% 0 in 0 W/m2
22:26 73.8 °F 51.1 °F 30 in Calm   1 mph 45% 0 in 0 W/m2
22:31 73.6 °F 51.4 °F 30 in ESE 0.9 mph 2 mph 46% 0 in 0 W/m2
22:36 73 °F 51.1 °F 30 in SE 0.9 mph 2 mph 46% 0 in 0 W/m2
22:41 72.7 °F 51.3 °F 30 in Calm     47% 0 in 0 W/m2
22:46 72.3 °F 50.9 °F 30 in Calm   1 mph 47% 0 in 0 W/m2
22:51 72.1 °F 50.2 °F 30 in SE 0.9 mph 1 mph 46% 0 in 0 W/m2
22:56 72 °F 50 °F 30 in Calm   1 mph 46% 0 in 0 W/m2
23:01 71.8 °F 50.5 °F 30 in Calm   1 mph 47% 0 in 0 W/m2
23:06 71.8 °F 49.8 °F 30 in Calm     46% 0 in 0 W/m2
23:11 71.8 °F 49.8 °F 30 in South 2 mph 4 mph 46% 0 in 0 W/m2
23:16 72 °F 50 °F 30 in South 0.9 mph 2 mph 46% 0 in 0 W/m2
23:21 72 °F 50 °F 30 in South 0.9 mph 2 mph 46% 0 in 0 W/m2
23:26 71.8 °F 50.5 °F 30 in South 0.9 mph 2 mph 47% 0 in 0 W/m2
23:31 71.4 °F 50.7 °F 30 in South 0.9 mph 2 mph 48% 0 in 0 W/m2
23:36 71.2 °F 50 °F 30 in South 0.9 mph 2 mph 47% 0 in 0 W/m2
23:41 71.1 °F 49.8 °F 30 in South 0.9 mph 1 mph 47% 0 in 0 W/m2
23:46 70.7 °F 50 °F 30 in Calm   1 mph 48% 0 in 0 W/m2
23:51 70.5 °F 49.8 °F 30 in Calm     48% 0 in 0 W/m2
23:56 70.2 °F 49.6 °F 30 in Calm   1 mph 48% 0 in 0 W/m2
Juneau County Weather
Compliments of Weather Underground - 4 mb